Location: Taupo
(38.6830°S, 176.0830°E)
Time: 11:31:22
(UTC+13:00)

Daily predictions for brighter satellites

Satellite Brightness Start Highest point End
(mag) Time Altitude Azimuth Time Altitude Azimuth Time Altitude Azimuth
Cosmos 968 Rocket 3.5 19:58:01 10° NNW 20:03:12 80° ENE 20:08:24 10° SSE
CORIOLIS 4.5 19:59:00 10° S 20:04:27 75° WSW 20:09:48 10° NNW
Cosmos 220 Rocket 4.0 20:02:16 10° SSW 20:06:43 82° ESE 20:11:02 10° NNE
Cosmos 2369 Rocket 4.2 20:02:31 10° SW 20:07:31 31° WNW 20:12:29 10° NNW
Meteor 1-11 4.3 20:05:59 10° N 20:11:44 66° E 20:17:30 10° SSE
ISS -3.1 20:09:46 10° WNW 20:13:06 58° SW 20:16:29 10° SE
Cosmos 2123 Rocket 4.1 20:06:44 10° S 20:13:10 89° W 20:19:32 10° N
Cosmos 1455 2.3 20:09:19 10° S 20:13:15 83° W 20:17:09 10° N
Cosmos 1656 Rocket 4.2 20:10:36 10° SSW 20:16:17 65° WNW 20:21:54 10° N
YAOGAN 6 2.6 20:13:59 10° SSE 20:17:46 71° E 20:21:30 10° N
Okean-O 3.5 20:13:59 10° S 20:18:24 56° WSW 20:22:46 10° NNW
Aureole 2 Rocket 2.1 20:16:46 10° S 20:19:27 45° ESE 20:22:03 10° NE
NOAA 12 4.4 20:14:37 10° S 20:19:55 73° WSW 20:25:09 10° NNW
Cosmos 1703 4.1 20:19:46 10° NNW 20:23:36 56° W 20:27:31 10° S
CZ-4 R/B 4.4 20:22:18 10° SSE 20:26:33 86° ENE 20:30:42 10° NNW
Cosmos 1354 Rocket 4.5 20:23:43 10° NNW 20:28:59 69° WSW 20:34:21 10° SSE
Cosmos 1605 Rocket 4.2 20:26:12 10° N 20:32:19 78° W 20:38:35 10° S
Cosmos 1833 Rocket 4.1 20:29:05 10° NE 20:32:28 16° E 20:35:52 10° ESE
Envisat 3.6 20:31:57 10° S 20:37:03 61° WSW 20:42:04 10° NNW
Cosmos 1867 3.8 20:32:10 10° SSW 20:37:28 53° SE 20:41:44 16° NE
Cosmos 1340 Rocket 3.6 20:33:40 10° SSW 20:37:36 53° W 20:41:26 10° N
H-2A R/B 3.9 20:41:21 10° ESE 20:42:25 11° E 20:42:25 11° E
Cosmos 2173 Rocket 4.1 20:43:49 10° NNE 20:49:42 52° E 20:55:40 10° SSE
Cosmos 1777 Rocket 4.1 20:44:55 10° N 20:49:59 53° ENE 20:55:08 10° SSE
CZ-2D R/B 3.1 20:48:07 10° SSE 20:52:00 71° ENE 20:55:49 10° N
Cosmos 1939 Rocket 2.7 20:50:00 10° SSE 20:53:54 66° E 20:57:48 10° N
YAOGAN 1 3.1 20:51:43 10° S 20:56:04 64° WSW 21:00:22 10° NNW
CZ-4C R/B 3.0 20:49:12 10° NNW 20:57:28 85° ENE 21:04:45 10° SE
Cosmos 1802 Rocket 4.1 20:54:07 10° NNE 21:00:09 52° E 21:06:10 10° SSE
Cosmos 1869 3.4 20:59:46 10° S 21:03:47 55° E 21:05:39 28° NNE
Cosmos 1538 Rocket 4.4 20:59:07 10° S 21:04:08 43° ESE 21:06:28 27° ENE
CSL-04 Rocket 4.1 20:58:52 10° S 21:04:26 70° WSW 21:09:58 10° NNW
Cosmos 2082 Rocket 3.5 21:05:23 20° E 21:05:23 20° E 21:08:35 10° SE
Centaur AC-112 4.3 21:05:22 10° NW 21:07:07 12° NNW 21:08:07 11° N
GPS 2-04 Rocket1 2.7 21:05:03 10° WNW 21:08:25 46° N 21:09:00 41° NE
Haruka 4.4 20:55:17 10° W 21:08:29 40° NNW 21:11:13 23° NNE
DELTA 2 R/B (1) 3.6 21:03:01 10° W 21:08:42 83° S 21:12:30 22° E
Cosmos 1766 Rocket 4.1 21:09:15 32° NE 21:10:30 39° E 21:14:43 10° SSE
Cosmos 2221 3.5 21:06:39 10° SSW 21:10:53 48° W 21:15:03 10° NNW
PSLV R/B 3.2 21:09:10 10° W 21:11:38 45° NNW 21:11:38 45° NNW
Cosmos 1892 3.1 21:11:34 38° ENE 21:11:47 38° E 21:15:24 10° SSE
ARGOS 4.4 21:07:48 10° SE 21:11:26 22° E 21:11:26 22° E
Cosmos 1725 Rocket 4.4 21:09:16 21° NNE 21:13:07 43° E 21:19:04 10° SSE
Lacrosse 4 Rocket 3.9 21:12:13 10° SSE 21:13:35 11° SE 21:14:28 11° ESE
Cosmos 1076 Rocket 4.3 21:13:40 10° NNW 21:17:51 53° W 21:22:06 10° S
Cosmos 2100 Rocket 4.0 21:11:47 10° N 21:17:59 85° W 21:24:20 10° S
BREEZE-M DEB (TANK) 4.2 21:16:59 10° SSW 21:18:17 13° SSE 21:19:48 10° SE
Ariane Rocket 2.9 21:14:31 10° SSE 21:19:42 83° ENE 21:24:48 10° NNW
Lacrosse 5 rocket 3.6 21:16:17 10° N 21:16:53 13° N 21:16:53 13° N
ATLAS CENTAUR R/B 4.3 21:04:59 10° NW 21:21:13 66° SW 21:26:55 10° SE
Cosmos 1408 Rocket 4.4 21:21:55 33° E 21:21:55 33° E 21:25:38 10° SSE
USA 229 DEB 3.6 21:14:42 10° SW 21:21:35 87° WNW 21:25:18 28° NNE
USA 229 3.6 21:14:44 10° SSW 21:21:39 88° NW 21:25:21 29° NNE
Cosmos 1697 Rocket 3.8 21:17:41 10° S 21:22:29 27° ESE 21:23:50 25° E
Okean 3 Rocket 3.4 21:19:49 23° N 21:22:32 73° E 21:27:00 10° SSE
COSMOS 2406 3.3 21:16:58 10° NNW 21:22:41 81° WSW 21:28:25 10° SSE
NOAA 11 4.4 21:18:01 10° S 21:23:35 73° WSW 21:29:03 10° NNW
Cosmos 2058 3.3 21:19:30 10° NNW 21:23:37 64° W 21:27:48 10° S
MOS 1 Rocket 3.8 21:24:44 37° E 21:25:36 41° ESE 21:30:21 10° S
CZ-4 R/B 4.2 21:22:46 10° SSW 21:25:41 20° WSW 21:28:39 10° WNW
In-Cosmos 22 Rocket 4.2 21:21:46 10° N 21:27:34 82° E 21:33:30 10° S
NOSS 3-1 (A) 3.4 21:21:32 10° SSW 21:27:48 60° SE 21:29:46 39° ENE
FREGAT/IRIS 3.3 21:25:04 10° SSE 21:27:08 43° SSE 21:27:08 43° SSE
USA 215 3.4 21:26:16 10° SE 21:32:38 49° NE 21:38:56 10° NNW
USA 186 2.4 21:29:22 10° SSE 21:31:59 47° SE 21:31:59 47° SE
Cosmos 2016 Rocket 4.0 21:28:27 10° N 21:34:51 83° E 21:41:17 10° S
Cosmos 2369 4.4 21:30:33 10° S 21:35:52 37° ESE 21:36:54 35° E
Cosmos 2151 2.9 21:36:44 47° N 21:37:56 85° E 21:42:16 10° S
CZ-2C R/B 4.3 21:35:23 10° SE 21:38:40 26° ESE 21:38:40 26° ESE
MOS 1 4.2 21:35:09 10° SSE 21:40:57 78° ENE 21:44:50 22° N
NOSS 3-1 (C) 3.4 21:36:09 10° SW 21:42:18 68° WNW 21:44:19 40° N
SJ-6B 3.1 21:38:12 10° SSE 21:41:47 56° ESE 21:41:47 56° ESE
CZ-2C R/B 3.0 21:39:24 23° N 21:42:39 58° W 21:47:49 10° SSW
SL-08 R/B 4.4 21:38:54 22° N 21:43:04 81° E 21:49:26 10° S
Atlas 2A Centaur Rocket 4.1 21:17:19 10° WNW 21:44:21 43° NNW 21:46:52 34° NNE
Cosmos 1816 Rocket 4.5 21:38:26 10° S 21:44:35 60° E 21:46:04 47° NE
ISS -0.7 21:48:31 10° SW 21:50:25 14° SSW 21:52:20 10° SSE
BREEZE-M R/B 4.1 21:42:01 10° WSW 21:51:18 48° SSE 21:51:48 45° SE
Cosmos 1408 4.3 21:57:06 25° SSE 21:57:06 25° SSE 21:58:45 10° SSE
Cosmos 1656 3.6 21:49:46 10° SSW 21:55:31 84° ESE 21:56:36 61° NNE
Cosmos 1356 Rocket 4.3 21:56:24 10° SSW 22:00:21 43° W 22:00:59 39° WNW
Cosmos 2278 4.1 22:00:24 10° SSW 22:05:56 48° ESE 22:05:56 48° ESE
SPOT 3 Rocket 3.4 22:02:12 10° SSE 22:07:27 86° ENE 22:07:46 79° N
NOSS 2-3 (C) 4.0 22:05:33 10° SSW 22:12:13 87° ESE 22:12:32 80° NE
Cosmos 1980 Rocket 3.0 22:09:56 10° S 22:14:45 38° SE 22:14:45 38° SE
Cosmos 1833 Rocket 3.0 22:10:10 10° NNW 22:15:46 63° WSW 22:21:27 10° SSE
Resurs 01 Rocket 3.4 22:12:24 10° SSE 22:14:09 22° SSE 22:14:09 22° SSE
Cosmos 1680 Rocket 3.7 22:15:24 10° SSW 22:20:09 64° SSE 22:20:09 64° SSE
Cosmos 1515 Rocket 4.5 22:18:02 10° S 22:21:09 44° S 22:21:09 44° S
H-2A R/B 2.1 22:17:59 10° S 22:23:01 71° WSW 22:23:03 71° W
SJ 16-02 3.7 22:27:05 15° SSE 22:27:05 15° SSE 22:27:58 10° SSE
Tsikada Rocket 4.1 22:19:24 10° SSW 22:25:36 68° W 22:26:44 56° NW
Mayak 0.9 22:30:32 20° SSE 22:30:32 20° SSE 22:32:07 10° S
Meteor 2-3 Rocket 4.2 22:30:36 53° SE 22:30:36 53° SE 22:35:07 10° SSE
Cosmos 1151 Rocket 4.3 22:30:38 10° SSW 22:33:49 38° SW 22:33:49 38° SW
Cosmos 923 Rocket 4.4 22:29:40 10° SSW 22:34:36 61° WSW 22:34:36 61° WSW
ATLAS CENTAUR Rocket 3.9 22:06:54 10° W 22:37:59 47° NNW 22:38:39 47° N
Thor Agena Rocket 4.4 22:45:28 43° W 22:45:28 43° W 22:49:55 10° SSW
Cosmos 2082 Rocket 2.9 22:47:05 44° W 22:48:07 50° WSW 22:53:37 10° SSE
ARGOS 4.1 22:47:14 10° S 22:52:23 44° WSW 22:52:58 43° W
Lacrosse 4 Rocket 3.3 22:48:26 10° SSW 22:50:47 30° SSW 22:50:47 30° SSW
Cosmos 1697 Rocket 3.8 23:01:15 10° SW 23:05:35 38° W 23:05:35 38° W
USA 215 4.0 23:09:16 10° SE 23:15:34 49° SW 23:21:51 10° WNW
SL-16 R/B 3.7 23:12:41 10° S 23:16:05 30° SSE 23:16:05 30° SSE
Cosmos 2322 Rocket 3.8 23:40:30 10° SSW 23:43:34 31° S 23:43:34 31° S
USA 267 3.8 23:49:25 53° SSW 23:49:25 53° SSW 23:54:30 10° SW
Resurs 01 Rocket 4.5 23:50:14 10° SSW 23:51:43 14° SW 23:51:43 14° SW
Cosmos 2360 Rocket 4.1 23:48:23 10° S 23:51:06 24° SSE 23:51:06 24° SSE
